Home > Weather > Monthey > Past weeks

Flag for Switzerland Past Weather in Monthey, Valais, Switzerland — Yesterday and Last 2 Weeks

Now
54 °F

Scattered clouds.


Feels Like: 51 °F
Forecast: 43 / 70 °F
Wind: 12 mph from North

Location: Aigle

Current Time: May 24, 2016 at 11:54:39 AM

Latest Report: May 24, 2016 at 11:00 AM


Visibility: 19 mi

Pressure: 30.01 "Hg

Humidity: 79%

Dew Point: 48 °F

Location of MontheyLocation

Past Weather in Monthey — Graph

°F

Monthey Temperature Yesterday

Maximum temperature yesterday: 53 °F (at 12:00 AM)
Minimum temperature yesterday: 45 °F (at 8:00 AM)
Average temperature yesterday: 49 °F

High & Low Weather Summary for the Past Weeks

 TemperatureHumidityPressure
High76 °F (May 9, 4:00 PM)96% (May 14, 3:00 AM)30.24 "Hg (May 14, 3:00 AM)
Low38 °F (May 16, 6:00 AM)28% (May 9, 2:00 PM)29.50 "Hg (May 11, 8:00 PM)
Average56 °F74%29.91 "Hg
* Reported May 9 10:00 AM — May 24 10:00 AM, Monthey, Weather by CustomWeather, © 2016

Note: Actual official high and low records may vary slightly from our data, if they occured in-between our weather recording intervals... More about our weather records

Advertising

Monthey Weather History for the Previous 24 Hours

Scroll right to see more
 ConditionsComfort  
Time TempWeatherWind HumidityBarometerVisibility
10:00 AM
Tue, May 24
53 °FCool.8 mph83%30.02 "HgN/A
9:00 AM50 °FCool.1 mph86%30.05 "HgN/A
8:00 AM48 °FPartly sunny.2 mph91%30.08 "Hg19 mi
7:00 AM47 °FCool.2 mph94%30.09 "HgN/A
6:00 AM47 °FCool.No wind93%30.10 "HgN/A
5:00 AM47 °FOvercast.1 mph93%30.09 "Hg16 mi
4:00 AM47 °FCool.No wind93%30.10 "HgN/A
3:00 AM47 °FCool.No wind93%30.11 "HgN/A
2:00 AM47 °FCool.No wind94%30.11 "HgN/A
1:00 AM46 °FCool.3 mph87%30.11 "HgN/A
12:00 AM46 °FCool.3 mph87%30.12 "HgN/A
11:00 PM
Mon, May 23
47 °FCool.3 mph86%30.11 "HgN/A
10:00 PM48 °FCool.3 mph88%30.11 "HgN/A
9:00 PM49 °FCool.3 mph89%30.09 "HgN/A
8:00 PM50 °FLight rain. Overcast.3 mph85%30.08 "Hg5 mi
7:00 PM52 °FCool.5 mph76%30.05 "HgN/A
6:00 PM53 °FCool.2 mph73%30.05 "HgN/A
5:00 PM52 °FOvercast.1 mph67%30.06 "Hg9 mi
4:00 PM52 °FCool.2 mph72%30.07 "HgN/A
3:00 PM50 °FCool.3 mph77%30.06 "HgN/A
2:00 PM51 °FRain. Overcast.8 mph82%30.06 "Hg9 mi
1:00 PM50 °FCool.2 mph74%30.05 "HgN/A
12:00 PM49 °FCool.2 mph81%30.05 "HgN/A
11:00 AM46 °FLight rain. Overcast.2 mph83%30.06 "Hg12 mi
Weather by CustomWeather, © 2016

See weather overviewHow to use our weather pages